Weather History for Sulphur, LA

Change the Weather History Date:

Thursday, May 2, 2013

  Actual Average (KLCH) Record (KLCH)
Temperature  
Mean Temperature 66 °F 72 °F  
Max Temperature 77 °F 82 °F 90 °F (2010)
Min Temperature 55 °F 63 °F 45 °F (1925)
Degree Days  
Heating Degree Days 0 0  
Month to date heating degree days 0  
Since 1 July heating degree days 1489  
Cooling Degree Days 1 7  
Month to date cooling degree days 14  
Year to date cooling degree days 222  
Growing Degree Days 16 (Base 50)    
Moisture  
Dew Point 63 °F    
Average Humidity 86    
Maximum Humidity 100    
Minimum Humidity 65    
Precipitation  
Precipitation 0.04 in 0.13 in 4.00 in (1916)
Month to date precipitation 0.27  
Year to date precipitation 15.95  
Snow  
Snow 0.00 in 0.00 in 0.00 in ()
Month to date snowfall 0.0  
Since 1 July snowfall 0.1  
Snow Depth -    
Sea Level Pressure  
Sea Level Pressure 29.97 in    
Wind  
Wind Speed 7 mph (NNW)    
Max Wind Speed 23 mph    
Max Gust Speed 32 mph    
Visibility 9 miles    
Events Rain    
T = Trace of Precipitation, MM = Missing Value Source: NWS Daily Summary

Daily Weather History Graph

Daily Weather History Graph

Search for Another Location

Airport:

Trip Planner

Search our weather history database for the weather conditions in past years. The results will help you decide how hot, cold, wet, or windy it might be!

Date:

Astronomy

May. 02, 2013 Rise Set
Actual Time 6:29 AM CDT 7:51 PM CDT
Civil Twilight 6:03 AM CDT 8:17 PM CDT
Nautical Twilight 5:33 AM CDT 8:47 PM CDT
Astronomical Twilight 5:02 AM CDT 9:19 PM CDT
Moon 1:45 AM CDT 1:12 PM CDT
Length of Visible Light 14h 13m
Length of Day
13h 22m
Waning Gibbous, 47% of the Moon is Illuminated
May 2
Waning Gibbous
May 9
New
May 17
First Quarter
May 24
Full
May 31
Last Quarter

Hourly Weather History & Observations

Time (CDT) Temp. Dew Point Humidity Pressure Visibility Wind Dir Wind Speed Gust Speed Precip Events Conditions
12:15 AM 68.0 °F 64.4 °F 88% 29.89 in 10.0 mi NE 3.5 mph - N/A   Scattered Clouds
12:35 AM 68.0 °F 64.4 °F 88% 29.89 in 10.0 mi NE 3.5 mph - N/A   Clear
12:55 AM 68.0 °F 64.4 °F 88% 29.90 in 10.0 mi Calm Calm - N/A   Scattered Clouds
1:15 AM 68.0 °F 64.4 °F 88% 29.90 in 10.0 mi Calm Calm - N/A   Mostly Cloudy
1:35 AM 66.2 °F 64.4 °F 94% 29.90 in 10.0 mi Calm Calm - N/A   Mostly Cloudy
1:55 AM 66.2 °F 64.4 °F 94% 29.90 in 10.0 mi Calm Calm - N/A   Scattered Clouds
2:15 AM 66.2 °F 64.4 °F 94% 29.89 in 10.0 mi Calm Calm - N/A   Mostly Cloudy
2:35 AM 64.4 °F 64.4 °F 100% 29.89 in 10.0 mi NNW 3.5 mph - N/A   Mostly Cloudy
2:55 AM 64.4 °F 64.4 °F 100% 29.89 in 10.0 mi North 5.8 mph - N/A   Scattered Clouds
3:15 AM 64.4 °F 64.4 °F 100% 29.90 in 10.0 mi North 8.1 mph - N/A   Clear
3:35 AM 64.4 °F 64.4 °F 100% 29.90 in 10.0 mi NNW 4.6 mph - N/A   Clear
3:55 AM 64.4 °F 64.4 °F 100% 29.90 in 10.0 mi North 5.8 mph - N/A   Clear
4:15 AM 64.4 °F 64.4 °F 100% 29.91 in 10.0 mi North 5.8 mph - N/A   Clear
4:35 AM 64.4 °F 62.6 °F 94% 29.91 in 10.0 mi North 4.6 mph - N/A   Clear
4:55 AM 64.4 °F 62.6 °F 94% 29.91 in 10.0 mi Calm Calm - N/A   Scattered Clouds
5:15 AM 62.6 °F 62.6 °F 100% 29.91 in 10.0 mi North 3.5 mph - N/A   Clear
5:35 AM 62.6 °F 62.6 °F 100% 29.92 in 10.0 mi NW 3.5 mph - N/A   Scattered Clouds
5:55 AM 62.6 °F 62.6 °F 100% 29.92 in 10.0 mi WNW 3.5 mph - N/A   Scattered Clouds
6:15 AM 62.6 °F 62.6 °F 100% 29.92 in 7.0 mi NNW 5.8 mph - N/A   Clear
6:35 AM 62.6 °F 62.6 °F 100% 29.93 in 10.0 mi NNW 6.9 mph - N/A   Scattered Clouds
6:55 AM 62.6 °F 62.6 °F 100% 29.93 in 0.8 mi North 6.9 mph - N/A   Overcast
7:15 AM 64.4 °F 64.4 °F 100% 29.94 in 1.2 mi North 6.9 mph - N/A   Overcast
7:35 AM 64.4 °F 64.4 °F 100% 29.95 in 10.0 mi North 4.6 mph - N/A   Overcast
7:55 AM 66.2 °F 64.4 °F 94% 29.95 in 10.0 mi North 4.6 mph - N/A   Scattered Clouds
8:15 AM 68.0 °F 64.4 °F 88% 29.96 in 10.0 mi North 5.8 mph - N/A   Scattered Clouds
8:35 AM 68.0 °F 64.4 °F 88% 29.96 in 10.0 mi North 6.9 mph - N/A   Mostly Cloudy
8:55 AM 68.0 °F 66.2 °F 94% 29.96 in 10.0 mi North 11.5 mph - N/A   Overcast
9:15 AM 68.0 °F 66.2 °F 94% 29.96 in 10.0 mi North 12.7 mph - N/A   Overcast
9:35 AM 68.0 °F 66.2 °F 94% 29.97 in 4.0 mi North 6.9 mph - N/A Rain Light Rain
9:55 AM 68.0 °F 66.2 °F 94% 29.97 in 3.0 mi North 6.9 mph - N/A   Drizzle
10:15 AM 68.0 °F 66.2 °F 94% 29.98 in 10.0 mi North 10.4 mph - N/A   Overcast
10:35 AM 69.8 °F 66.2 °F 88% 29.98 in 10.0 mi North 9.2 mph - N/A   Overcast
10:55 AM 69.8 °F 66.2 °F 88% 29.98 in 10.0 mi North 12.7 mph - N/A   Overcast
11:35 AM 71.6 °F 64.4 °F 78% 29.98 in 10.0 mi North 10.4 mph - 0.01 in   Overcast
11:55 AM 71.6 °F 64.4 °F 78% 29.98 in 10.0 mi NNW 9.2 mph - 0.01 in   Overcast
12:15 PM 71.6 °F 64.4 °F 78% 29.98 in 10.0 mi NNW 13.8 mph - N/A   Overcast
12:35 PM 73.4 °F 64.4 °F 73% 29.98 in 10.0 mi North 9.2 mph - N/A   Overcast
12:55 PM 71.6 °F 62.6 °F 73% 29.99 in 10.0 mi North 10.4 mph - N/A   Overcast
1:15 PM 71.6 °F 62.6 °F 73% 29.99 in 10.0 mi NNW 9.2 mph - N/A   Overcast
1:35 PM 71.6 °F 64.4 °F 78% 30.00 in 10.0 mi NW 12.7 mph 17.3 mph N/A   Overcast
1:55 PM 73.4 °F 62.6 °F 69% 30.00 in 10.0 mi NNW 10.4 mph - N/A   Overcast
2:15 PM 71.6 °F 64.4 °F 78% 30.00 in 10.0 mi NW 9.2 mph - N/A   Overcast
2:35 PM 73.4 °F 64.4 °F 73% 30.00 in 10.0 mi WNW 12.7 mph - N/A   Overcast
2:55 PM 73.4 °F 64.4 °F 73% 29.99 in 10.0 mi NNW 13.8 mph 18.4 mph N/A   Overcast
3:15 PM 73.4 °F 64.4 °F 73% 29.98 in 10.0 mi NW 12.7 mph 17.3 mph N/A   Overcast
3:35 PM 73.4 °F 64.4 °F 73% 29.98 in 10.0 mi NW 11.5 mph 17.3 mph N/A   Overcast
3:55 PM 73.4 °F 64.4 °F 73% 29.98 in 10.0 mi NW 12.7 mph 23.0 mph N/A   Overcast
4:15 PM 75.2 °F 64.4 °F 69% 29.97 in 10.0 mi NNW 11.5 mph 17.3 mph N/A   Mostly Cloudy
4:35 PM 75.2 °F 64.4 °F 69% 29.96 in 10.0 mi NW 12.7 mph 18.4 mph N/A   Mostly Cloudy
4:55 PM 75.2 °F 64.4 °F 69% 29.96 in 10.0 mi North 11.5 mph 19.6 mph N/A   Overcast
5:15 PM 77.0 °F 64.4 °F 65% 29.96 in 10.0 mi NNW 13.8 mph 18.4 mph N/A   Mostly Cloudy
5:35 PM 73.4 °F 64.4 °F 73% 29.96 in 10.0 mi NNW 13.8 mph 18.4 mph N/A   Mostly Cloudy
5:55 PM 73.4 °F 64.4 °F 73% 29.96 in 10.0 mi NNW 10.4 mph - N/A   Overcast
6:15 PM 75.2 °F 64.4 °F 69% 29.96 in 10.0 mi NNW 10.4 mph - N/A   Overcast
6:35 PM 73.4 °F 64.4 °F 73% 29.96 in 10.0 mi NNW 12.7 mph 16.1 mph N/A   Overcast
6:55 PM 73.4 °F 62.6 °F 69% 29.97 in 10.0 mi NW 9.2 mph 18.4 mph N/A   Mostly Cloudy
7:15 PM 73.4 °F 62.6 °F 69% 29.97 in 10.0 mi NNW 9.2 mph - N/A   Mostly Cloudy
7:35 PM 71.6 °F 62.6 °F 73% 29.98 in 10.0 mi NNW 8.1 mph - N/A   Overcast
7:55 PM 69.8 °F 64.4 °F 83% 29.99 in 10.0 mi NW 17.3 mph 27.6 mph N/A Rain Light Rain
8:15 PM 64.4 °F 62.6 °F 94% 30.01 in 5.0 mi WNW 20.7 mph 27.6 mph 0.01 in Rain Light Rain
8:35 PM 60.8 °F 59.0 °F 94% 30.03 in 5.0 mi WNW 23.0 mph 32.2 mph 0.03 in Rain Rain
8:55 PM 60.8 °F 59.0 °F 94% 30.04 in 7.0 mi NW 19.6 mph 27.6 mph 0.03 in   Overcast
9:15 PM 59.0 °F 57.2 °F 94% 30.05 in 10.0 mi NW 19.6 mph 27.6 mph N/A   Overcast
9:35 PM 59.0 °F 55.4 °F 88% 30.06 in 10.0 mi NW 19.6 mph 27.6 mph N/A   Overcast
9:55 PM 59.0 °F 55.4 °F 88% 30.07 in 10.0 mi NW 15.0 mph 25.3 mph N/A   Overcast
10:15 PM 59.0 °F 53.6 °F 82% 30.07 in 10.0 mi NNW 21.9 mph 28.8 mph N/A   Overcast
10:35 PM 57.2 °F 53.6 °F 88% 30.07 in 10.0 mi NW 20.7 mph 27.6 mph N/A   Overcast
10:55 PM 57.2 °F 53.6 °F 88% 30.08 in 10.0 mi NW 17.3 mph 21.9 mph N/A   Overcast
11:15 PM 57.2 °F 53.6 °F 88% 30.08 in 10.0 mi NW 13.8 mph 19.6 mph N/A   Overcast
11:35 PM 55.4 °F 51.8 °F 88% 30.08 in 10.0 mi NW 23.0 mph 31.1 mph N/A   Overcast
11:55 PM 55.4 °F 51.8 °F 88% 30.08 in 10.0 mi NNW 17.3 mph 27.6 mph N/A   Overcast